Photometre #843[NE_1.6_Dp] Camborne_MO AOT

File : 20220919_843.hum

19/09/2022,06:58:31,TEMP=10.6,BA=5.68,STAT.A,ExtBa=12.20
19/09/2022,07:02:33,TEMP=10.9,BA=5.64,STAT.A,ExtBa=12.20
19/09/2022,07:07:14,TEMP=11.2,BA=5.64,STAT.A,ExtBa=12.20
19/09/2022,07:12:23,TEMP=11.6,BA=5.68,STAT.D,ExtBa=12.20
19/09/2022,07:14:27,TEMP=12.1,BA=5.68,STAT.A,ExtBa=12.10
19/09/2022,07:20:55,TEMP=12.3,BA=5.64,STAT.A,ExtBa=12.20
19/09/2022,07:24:23,TEMP=12.6,BA=5.64,STAT.D,ExtBa=12.10
19/09/2022,07:27:54,TEMP=12.9,BA=5.64,STAT.A,ExtBa=12.10
19/09/2022,07:32:23,TEMP=13.2,BA=5.68,STAT.D,ExtBa=12.10
19/09/2022,07:36:23,TEMP=13.5,BA=5.68,STAT.D,ExtBa=12.10
19/09/2022,07:38:27,TEMP=14.0,BA=5.68,STAT.B,ExtBa=12.10
19/09/2022,07:47:13,TEMP=14.9,BA=5.64,STAT.A,ExtBa=12.00
19/09/2022,07:49:54,TEMP=15.1,BA=5.64,STAT.A,ExtBa=12.10
19/09/2022,07:52:25,TEMP=15.3,BA=5.60,STAT.D,ExtBa=12.10
19/09/2022,07:55:36,TEMP=15.5,BA=5.60,STAT.A,ExtBa=12.10
19/09/2022,08:00:25,TEMP=15.7,BA=5.68,STAT.D,ExtBa=12.10
19/09/2022,08:02:55,TEMP=16.0,BA=5.68,STAT.A,ExtBa=12.10
19/09/2022,08:08:23,TEMP=16.1,BA=5.68,STAT.D,ExtBa=12.10
19/09/2022,08:11:22,TEMP=16.5,BA=5.64,STAT.C,ExtBa=12.10
19/09/2022,08:20:42,TEMP=17.4,BA=5.64,STAT.b=17.0
19/09/2022,08:21:32,TEMP=17.5,BA=5.64,STAT.A,ExtBa=12.00
19/09/2022,08:24:23,TEMP=17.4,BA=5.64,STAT.D,ExtBa=12.10
19/09/2022,08:28:23,TEMP=17.3,BA=5.64,STAT.D,ExtBa=12.10
19/09/2022,08:32:24,TEMP=17.4,BA=5.64,STAT.D,ExtBa=12.10
19/09/2022,08:34:25,TEMP=17.9,BA=5.64,STAT.A,ExtBa=12.00
19/09/2022,08:40:24,TEMP=17.6,BA=5.68,STAT.D,ExtBa=12.10
19/09/2022,08:44:24,TEMP=17.8,BA=5.68,STAT.D,ExtBa=12.10
19/09/2022,08:47:09,TEMP=18.1,BA=5.68,STAT.A,ExtBa=12.10
19/09/2022,08:52:24,TEMP=18.1,BA=5.68,STAT.D,ExtBa=12.10
19/09/2022,08:56:24,TEMP=18.2,BA=5.68,STAT.D,ExtBa=12.10
19/09/2022,09:00:24,TEMP=18.3,BA=5.68,STAT.D,ExtBa=12.10
19/09/2022,09:04:24,TEMP=18.3,BA=5.68,STAT.D,ExtBa=12.10
19/09/2022,09:06:25,TEMP=18.7,BA=5.68,STAT.A,ExtBa=12.00
19/09/2022,09:12:24,TEMP=18.3,BA=5.68,STAT.D,ExtBa=12.10
19/09/2022,09:15:54,TEMP=18.5,BA=5.68,STAT.F,ExtBa=12.10
19/09/2022,09:25:09,TEMP=19.1,BA=5.60,STAT.b=17.0
19/09/2022,09:31:10,TEMP=18.9,BA=5.68,STAT.D,ExtBa=12.10
19/09/2022,09:36:24,TEMP=18.9,BA=5.68,STAT.D,ExtBa=12.10
19/09/2022,09:40:24,TEMP=19.1,BA=5.68,STAT.D,ExtBa=12.10
19/09/2022,09:44:24,TEMP=19.3,BA=5.68,STAT.D,ExtBa=12.10
19/09/2022,09:46:23,TEMP=19.7,BA=5.68,STAT.D,ExtBa=12.10
19/09/2022,09:52:24,TEMP=19.8,BA=5.68,STAT.D,ExtBa=12.10
19/09/2022,09:56:24,TEMP=20.3,BA=5.68,STAT.D,ExtBa=12.10
19/09/2022,10:00:24,TEMP=20.7,BA=5.68,STAT.D,ExtBa=12.10
19/09/2022,10:02:16,TEMP=21.1,BA=5.68,STAT.D,ExtBa=12.10
19/09/2022,10:15:55,TEMP=20.8,BA=5.68,STAT.F,ExtBa=12.10
19/09/2022,10:26:26,TEMP=21.3,BA=5.64,STAT.b=17.0
19/09/2022,10:31:10,TEMP=20.8,BA=5.68,STAT.D,ExtBa=12.10
19/09/2022,10:36:24,TEMP=20.7,BA=5.68,STAT.D,ExtBa=12.10
19/09/2022,10:45:53,TEMP=20.0,BA=5.68,STAT.D,ExtBa=12.10
19/09/2022,11:00:24,TEMP=18.8,BA=5.68,STAT.D,ExtBa=12.10
19/09/2022,11:02:21,TEMP=19.1,BA=5.68,STAT.D,ExtBa=12.10
19/09/2022,11:15:55,TEMP=18.0,BA=5.68,STAT.F,ExtBa=12.10
19/09/2022,11:28:24,TEMP=17.9,BA=5.68,STAT.D,ExtBa=12.10
19/09/2022,11:30:53,TEMP=18.2,BA=5.68,STAT.D,ExtBa=12.10
19/09/2022,11:44:24,TEMP=17.9,BA=5.68,STAT.D,ExtBa=12.10
19/09/2022,11:46:22,TEMP=18.3,BA=5.68,STAT.D,ExtBa=12.10
19/09/2022,12:00:24,TEMP=17.9,BA=5.68,STAT.D,ExtBa=12.10
19/09/2022,12:02:23,TEMP=18.3,BA=5.68,STAT.D,ExtBa=12.10
19/09/2022,12:15:55,TEMP=19.3,BA=5.68,STAT.F,ExtBa=12.10
19/09/2022,12:28:24,TEMP=19.8,BA=5.68,STAT.D,ExtBa=12.10
19/09/2022,12:30:53,TEMP=20.0,BA=5.68,STAT.D,ExtBa=12.10
19/09/2022,12:44:25,TEMP=19.1,BA=5.68,STAT.D,ExtBa=12.10
19/09/2022,12:46:21,TEMP=19.4,BA=5.68,STAT.D,ExtBa=12.10
19/09/2022,13:00:24,TEMP=18.1,BA=5.68,STAT.D,ExtBa=12.10
19/09/2022,13:02:21,TEMP=18.5,BA=5.68,STAT.D,ExtBa=12.10
19/09/2022,13:15:55,TEMP=17.7,BA=5.68,STAT.F,ExtBa=12.20
19/09/2022,13:28:24,TEMP=17.6,BA=5.68,STAT.D,ExtBa=12.20
19/09/2022,13:30:53,TEMP=17.9,BA=5.68,STAT.D,ExtBa=12.10
19/09/2022,13:44:24,TEMP=17.6,BA=5.68,STAT.D,ExtBa=12.20
19/09/2022,13:46:21,TEMP=18.1,BA=5.68,STAT.D,ExtBa=12.10
19/09/2022,14:00:24,TEMP=17.5,BA=5.68,STAT.D,ExtBa=12.20
19/09/2022,14:02:20,TEMP=17.9,BA=5.68,STAT.D,ExtBa=12.10
19/09/2022,14:15:55,TEMP=17.5,BA=5.68,STAT.F,ExtBa=12.20
19/09/2022,14:28:24,TEMP=17.4,BA=5.68,STAT.D,ExtBa=12.20
19/09/2022,14:30:53,TEMP=17.7,BA=5.68,STAT.D,ExtBa=12.10
19/09/2022,14:44:24,TEMP=17.3,BA=5.68,STAT.D,ExtBa=12.20
19/09/2022,14:46:21,TEMP=17.7,BA=5.68,STAT.D,ExtBa=12.10
19/09/2022,15:00:24,TEMP=17.2,BA=5.68,STAT.D,ExtBa=12.20
19/09/2022,15:02:21,TEMP=17.5,BA=5.68,STAT.D,ExtBa=12.10
19/09/2022,15:15:54,TEMP=16.7,BA=5.68,STAT.F,ExtBa=12.20
19/09/2022,15:26:55,TEMP=16.5,BA=5.68,STAT.A,ExtBa=12.20
19/09/2022,15:40:24,TEMP=16.3,BA=5.68,STAT.D,ExtBa=12.20
19/09/2022,15:44:39,TEMP=16.4,BA=5.68,STAT.A,ExtBa=12.10
19/09/2022,15:56:24,TEMP=16.3,BA=5.68,STAT.D,ExtBa=12.10
19/09/2022,15:58:52,TEMP=16.5,BA=5.68,STAT.A,ExtBa=12.10
19/09/2022,16:10:34,TEMP=16.3,BA=5.68,STAT.A,ExtBa=12.10
19/09/2022,16:20:26,TEMP=16.3,BA=5.68,STAT.C,ExtBa=12.10
19/09/2022,16:28:53,TEMP=16.3,BA=5.68,STAT.A,ExtBa=12.10
19/09/2022,16:36:12,TEMP=16.3,BA=5.64,STAT.A,ExtBa=12.20
19/09/2022,16:42:37,TEMP=16.4,BA=5.68,STAT.A,ExtBa=12.10
19/09/2022,16:48:17,TEMP=16.4,BA=5.68,STAT.A,ExtBa=12.10
19/09/2022,16:53:21,TEMP=16.4,BA=5.68,STAT.B,ExtBa=12.10
19/09/2022,17:03:54,TEMP=16.2,BA=5.68,STAT.A,ExtBa=12.10
19/09/2022,17:12:13,TEMP=16.2,BA=5.68,STAT.A,ExtBa=12.20
19/09/2022,17:24:33,TEMP=16.3,BA=5.52,STAT.A,ExtBa=12.10
19/09/2022,17:28:23,TEMP=16.3,BA=5.52,STAT.D,ExtBa=12.10
19/09/2022,17:30:39,TEMP=16.7,BA=5.64,STAT.A,ExtBa=12.10
19/09/2022,17:37:05,TEMP=16.3,BA=5.64,STAT.A,ExtBa=12.10